Temperature
14 14 14 15 15 14 14 13 13 13 13 14 13 13 13 14 14 14 14 14 14 14 14 14 14 14 14 14 14 14 14 13 13 13 13 13 13 13 13 13 12 12 12 12
14 14 14 14 14 14 13 13 13 13 13 13 13 13 13 13 13 13 13 13 14 14 14 14 14 14 14 13 14 13 13 13 13 13 13 13 13 13 13 12 12 12 12 12
12 13 14 14 13 13 13 13 13 13 13 12 12 12 12 13 13 13 13 13 13 14 13 13 13 13 13 13 13 13 13 13 13 13 13 13 12 12 12 12 12 12 12 12
11 13 14 13 13 13 13 13 12 12 12 12 12 13 13 14 13 13 13 13 13 13 13 13 13 13 13 13 13 13 13 13 12 12 12 12 12 12 12 12 12 11 11 11
10 11 12 13 12 12 12 12 12 11 12 12 12 12 12 13 13 13 13 13 13 13 13 13 13 13 13 13 13 12 12 12 12 12 12 12 12 12 12 11 11 11 11 11
9 12 12 12 12 12 12 12 12 11 11 11 11 10 11 12 13 13 13 13 13 13 13 13 12 12 12 12 12 12 12 12 12 12 12 12 11 11 11 11 11 11 10 10
9 10 11 11 11 12 12 11 11 11 11 11 10 11 12 12 12 12 12 12 12 12 12 12 12 12 12 12 12 12 12 11 11 11 11 11 11 11 11 10 10 10 10 10
8 10 11 10 10 10 10 11 11 11 11 11 11 11 12 12 12 12 12 12 12 12 12 11 11 11 11 11 11 11 11 11 11 11 11 11 10 10 10 10 10 10 9 9
9 10 10 10 10 11 11 11 11 11 11 11 11 11 11 11 11 11 11 11 11 11 11 11 11 11 11 11 11 10 10 10 10 10 10 10 10 10 10 10 9 9 9 9
8 8 9 10 11 11 11 11 11 11 11 11 11 11 11 11 11 11 11 11 10 10 10 10 10 10 10 10 10 10 10 10 10 10 10 10 9 9 9 9 9 9 9 9
8 8 9 10 11 11 11 11 11 11 11 11 11 10 10 10 10 10 10 10 10 10 10 10 10 10 10 9 9 9 9 9 9 9 9 9 9 9 9 9 9 8 8 8
8 9 8 10 11 11 11 11 11 11 10 10 10 10 10 10 10 9 9 9 9 9 9 9 9 9 9 9 9 9 9 9 9 9 9 9 9 8 8 8 8 8 8 8
10 10 10 10 10 10 10 10 10 10 10 10 9 9 9 9 9 9 9 9 9 9 9 9 9 9 9 8 8 8 9 9 8 8 8 8 8 8 8 8 7 7 7 7
10 10 9 9 10 10 10 9 9 9 9 9 9 9 9 9 8 8 8 8 8 8 8 8 8 8 8 8 8 8 8 8 8 8 8 8 7 7 7 7 7 7 7 7
9 9 9 9 9 9 9 9 9 9 9 8 8 8 8 8 8 8 8 8 8 8 8 7 7 7 7 8 8 8 8 7 7 7 7 7 7 7 7 7 6 6 6 6
9 9 9 9 9 9 8 8 8 8 8 8 8 8 8 7 7 7 7 7 7 7 7 7 7 7 7 7 7 7 7 7 7 7 7 7 6 6 6 6 6 6 6 6
8 8 8 8 8 8 8 8 8 7 7 7 7 7 7 7 7 7 7 7 6 6 6 6 6 6 6 6 7 7 7 7 6 6 6 6 6 6 6 6 6 6 6 6
8 8 8 8 8 8 7 7 7 7 7 6 6 6 6 6 6 6 6 6 6 6 6 6 6 6 6 6 6 6 6 6 6 6 6 6 6 6 6 6 6 5 5 5
8 8 8 7 7 7 7 7 7 6 6 6 6 6 6 6 5 5 5 5 5 5 5 5 5 5 5 5 5 5 5 6 5 5 5 5 5 5 5 5 5 5 5 5
7 7 7 7 7 6 6 6 6 6 6 5 5 5 5 5 5 5 4 4 4 4 4 4 4 5 5 5 5 5 5 5 5 5 5 5 5 5 5 5 5 4 4 4
7 7 7 6 6 6 6 6 5 5 5 5 5 5 4 4 4 4 4 4 4 4 4 4 4 4 4 4 4 4 4 4 4 4 4 4 4 4 4 4 4 4 4 3
7 6 6 6 6 5 5 5 5 5 5 4 4 4 4 4 4 4 4 3 3 3 3 3 3 3 3 3 4 4 4 4 4 4 4 4 3 3 3 3 3 3 3 3
6 6 6 5 5 5 5 5 5 4 4 4 4 4 4 3 3 3 3 3 3 3 3 3 3 3 3 3 3 3 3 3 3 3 3 3 3 3 3 3 3 3 3 3
6 5 5 5 5 5 5 4 4 4 4 4 3 3 3 3 3 3 3 2 2 2 2 2 2 2 2 2 2 2 2 3 3 3 2 2 2 2 2 2 3 2 2 2
5 5 5 4 4 4 4 4 4 3 3 3 3 3 3 3 2 2 2 2 2 2 2 2 2 2 2 2 2 2 2 2 2 2 2 2 2 2 2 2 2 2 2 2
5 4 4 4 4 4 4 3 3 3 3 3 3 2 2 2 2 2 2 1 1 1 1 1 1 1 1 1 1 1 1 1 1 1 1 1 1 1 1 2 2 2 1 1
4 4 4 4 3 3 3 3 3 3 3 2 2 2 2 2 1 1 1 1 1 1 1 1 1 1 1 1 1 1 1 1 1 1 1 1 1 1 1 1 1 1 1 1
Wind_Speed
4 3 3 3 4 4 6 7 8 8 7 8 6 5 5 3 2 1 1 1 2 2 2 2 2 2 2 3 3 3 5 5 5 4 4 3 3 3 3 3 4 3 3 3
1 1 2 2 4 4 4 4 5 4 6 6 4 1 1 2 1 2 3 3 3 2 2 3 3 3 2 2 3 4 4 4 4 4 4 4 4 3 3 3 3 3 3 3
3 3 1 4 4 4 3 3 5 6 6 2 2 2 3 3 2 3 4 4 4 3 3 4 4 4 4 4 3 4 4 4 4 4 4 4 3 3 4 4 3 3 3 3
1 2 4 5 1 2 3 1 2 2 3 3 3 3 2 1 3 3 3 3 3 3 3 3 2 2 2 3 3 3 3 3 4 4 4 3 3 3 3 3 3 3 3 3
3 2 5 5 2 2 3 3 1 2 3 2 2 4 4 3 1 2 2 2 2 2 2 2 1 1 2 2 3 3 3 4 4 4 4 4 4 3 3 3 3 3 3 3
4 3 5 5 4 2 2 3 3 1 3 2 2 1 5 4 2 3 2 2 0 0 0 0 1 1 2 2 3 3 3 4 3 4 4 5 5 4 2 3 3 3 3 3
4 4 6 4 4 2 3 5 4 2 3 2 3 4 3 2 3 2 2 2 1 1 1 1 1 2 2 2 3 3 2 2 2 3 4 4 3 3 3 3 2 2 2 2
4 3 6 2 3 3 4 2 2 2 2 1 1 2 2 2 2 3 3 3 2 1 1 1 1 2 1 2 3 1 1 1 2 2 3 3 3 3 3 3 3 2 2 2
5 5 2 1 3 2 1 1 2 1 1 0 1 2 3 2 2 2 3 3 2 1 2 2 1 2 2 2 1 1 1 1 2 2 2 2 3 3 3 3 3 3 3 3
2 4 3 2 1 1 0 1 1 1 0 1 0 1 2 2 2 3 3 3 2 2 2 2 1 0 1 1 1 2 1 1 2 2 2 2 2 3 3 4 4 4 4 4
3 4 2 2 1 1 1 1 2 2 1 1 1 1 1 1 2 2 2 2 2 2 2 2 2 2 1 1 1 1 2 2 2 2 2 3 3 4 5 5 6 6 6 6
5 5 4 4 3 1 0 1 1 2 2 2 0 0 1 1 1 2 2 2 2 3 3 3 3 3 3 2 1 2 2 2 2 2 2 2 2 2 4 5 6 7 7 6
4 2 2 3 1 0 1 0 0 1 0 1 1 1 0 1 2 2 2 2 2 3 3 3 3 3 3 2 2 3 3 2 2 2 2 2 3 3 3 4 4 5 5 6
1 2 0 1 1 1 0 1 1 2 2 1 1 1 1 2 2 2 2 3 3 3 3 3 3 4 4 3 2 3 3 3 2 3 3 3 3 3 3 3 3 3 4 5
1 2 2 1 1 2 2 3 3 3 3 3 2 2 1 1 2 3 3 3 3 3 4 4 4 5 4 3 2 3 3 3 3 3 3 3 3 3 3 3 3 3 2 3
1 2 2 2 2 1 2 2 2 1 2 2 2 2 2 2 2 3 3 2 2 3 4 4 5 6 5 3 2 2 3 5 3 2 2 2 2 3 3 3 3 3 4 4
3 1 1 0 1 1 1 1 1 1 1 1 1 2 2 3 3 4 4 4 3 3 4 4 6 7 5 4 3 3 3 3 5 3 2 3 3 4 4 4 4 4 4 4
4 4 4 4 4 3 1 1 0 0 1 1 1 2 2 2 3 4 5 4 4 4 4 4 5 6 5 4 3 3 3 3 2 3 3 3 3 4 4 4 4 4 4 4
2 2 2 2 2 3 2 1 1 1 1 0 1 1 2 2 3 3 4 4 4 5 6 6 8 6 6 5 4 2 2 3 3 3 3 3 3 3 3 3 3 3 3 3
1 1 2 1 1 2 2 1 1 0 0 0 0 1 2 3 3 3 3 3 4 5 6 7 6 5 5 6 5 2 2 3 3 3 3 3 3 3 3 3 3 3 3 3
1 1 2 2 1 1 1 1 1 1 1 1 1 1 3 3 3 3 3 4 6 6 6 8 5 5 5 5 5 2 2 2 3 3 3 3 3 3 3 3 3 3 3 3
1 2 2 2 1 1 1 1 1 1 1 1 1 2 2 3 4 4 4 4 6 8 5 4 4 6 7 7 3 2 2 3 3 3 3 3 3 4 4 4 4 4 4 4
2 2 2 2 2 1 0 1 1 1 2 2 2 3 3 3 3 3 5 5 4 7 6 4 7 9 9 5 3 3 3 3 4 4 4 4 4 4 4 4 4 4 4 4
2 2 1 1 1 1 1 2 2 2 2 3 3 3 3 3 4 4 4 7 8 8 5 7 9 10 8 4 3 4 4 4 4 4 3 3 3 3 4 4 4 4 3 4
3 2 2 2 2 2 3 2 1 2 2 2 3 3 3 3 4 4 4 5 8 8 5 7 10 9 6 4 4 4 4 4 4 3 3 3 3 3 3 3 3 4 3 4
3 3 3 4 3 3 2 2 2 2 2 3 3 3 3 3 4 4 4 5 6 7 5 4 5 6 4 4 4 4 4 4 5 4 3 3 3 3 3 4 4 4 4 4
2 2 1 1 2 2 3 3 3 3 3 3 4 4 4 4 4 4 4 4 4 4 4 4 4 4 4 5 4 4 4 4 4 3 3 3 3 3 3 4 4 4 4 4
Wind_Direction
224 220 191 224 233 190 190 194 196 228 233 261 270 265 272 274 268 208 212 204 199 210 223 226 222 229 222 215 201 188 180 187 198 198 193 189 186 189 186 184 187 183 178 180
292 323 182 249 264 217 211 201 209 227 252 264 279 299 307 294 256 238 244 240 234 229 229 230 226 228 221 208 194 172 180 193 193 185 184 187 188 183 176 181 181 170 177 182
257 301 10 268 244 204 197 206 186 216 245 274 313 292 261 260 246 240 248 243 232 232 231 231 229 222 212 204 182 168 179 187 184 179 184 187 181 168 177 183 173 176 188 187
153 62 233 245 278 175 188 233 222 228 257 238 250 277 291 259 214 243 259 255 245 240 243 251 240 231 210 178 168 171 181 185 187 182 183 173 165 178 188 178 176 191 199 199
138 206 270 289 281 186 195 264 248 249 293 314 350 14 344 328 281 255 249 258 249 234 232 236 240 213 154 160 164 167 185 193 196 186 178 171 179 196 195 181 189 197 199 198
139 185 236 257 293 278 143 269 302 278 278 300 61 357 287 308 334 342 352 353 323 191 112 149 262 158 142 163 164 192 209 210 201 186 181 185 195 200 193 185 194 192 198 203
167 211 256 275 298 76 149 258 298 271 263 208 202 233 269 324 357 4 5 0 23 72 104 222 191 136 141 170 211 228 221 208 199 193 193 191 191 188 172 171 167 178 207 226
160 196 253 310 103 153 225 290 309 291 276 222 276 337 359 6 11 17 13 13 26 59 27 11 107 133 153 225 241 216 176 203 216 209 201 186 175 181 177 172 175 197 212 253
188 207 245 208 189 237 201 278 286 262 295 222 10 346 347 356 360 3 4 5 8 40 25 15 48 141 181 257 244 155 160 227 230 215 199 182 183 186 186 186 194 212 217 235
211 252 257 266 287 341 289 261 291 298 130 129 79 328 344 346 346 351 356 357 3 29 23 343 324 261 221 254 204 154 180 230 230 213 213 202 197 195 195 200 209 217 222 233
234 260 300 304 280 284 351 27 40 31 41 140 111 351 313 312 318 334 343 349 6 3 324 308 309 303 281 268 179 175 196 215 222 220 215 218 222 221 215 218 214 216 218 217
222 217 197 254 276 235 132 353 28 51 24 6 5 248 329 314 316 330 340 350 352 337 319 310 309 297 292 270 209 195 205 213 214 224 228 219 230 271 257 243 246 241 231 224
216 208 197 261 307 110 167 235 349 49 134 304 328 316 346 332 324 335 339 338 322 309 306 306 307 302 294 277 230 212 216 220 216 224 226 221 218 226 256 285 277 259 248 244
194 128 221 266 269 286 42 25 28 22 12 19 2 7 16 359 345 344 321 304 307 311 312 310 305 300 297 287 244 224 229 232 224 222 225 224 224 229 228 234 261 278 271 257
210 172 192 201 71 57 54 60 56 32 19 16 17 23 18 0 328 315 316 324 334 330 323 321 317 309 308 288 244 230 234 235 228 222 227 227 226 230 233 233 239 252 273 277
135 90 105 110 116 96 77 74 66 13 6 359 358 348 337 334 326 327 328 331 331 317 315 318 311 308 311 298 260 242 243 250 251 235 229 231 227 225 231 234 238 241 245 250
138 143 145 184 201 192 194 199 190 214 312 325 322 340 359 3 355 342 331 323 306 295 300 303 305 311 312 303 272 249 245 250 257 259 239 235 234 233 233 233 237 242 248 246
193 198 200 200 198 199 221 244 200 210 249 279 348 22 18 358 331 320 322 327 329 326 319 311 313 317 312 302 285 262 247 241 240 245 247 243 244 239 236 238 241 247 259 258
188 188 192 189 187 179 182 199 236 247 270 340 25 342 317 311 310 314 325 334 332 323 318 315 321 326 315 305 306 280 259 248 250 251 246 251 255 250 244 242 244 245 250 251
168 170 164 166 152 155 167 178 162 193 297 303 7 349 328 313 309 313 315 306 294 291 300 312 315 312 311 307 303 282 266 257 249 251 250 245 248 253 248 244 244 246 247 244
169 160 152 158 163 170 172 169 166 223 275 258 240 262 281 295 303 307 310 308 305 305 309 314 317 311 309 310 303 291 274 267 259 256 253 251 251 251 249 246 249 251 250 248
184 179 185 173 160 206 233 205 196 207 233 267 287 291 298 302 305 304 289 278 291 309 316 307 305 313 320 318 308 291 273 266 265 260 254 252 250 250 250 248 248 250 252 251
197 202 202 199 194 204 248 236 212 210 229 244 250 258 264 273 275 283 296 296 292 310 318 304 312 319 323 325 316 298 283 272 265 259 256 254 251 250 252 250 247 245 246 248
196 201 208 204 136 131 243 271 269 262 256 259 252 250 256 279 290 280 274 296 310 312 308 306 314 319 323 323 311 301 289 280 272 265 263 261 258 255 254 253 251 249 247 247
192 192 190 179 193 228 239 250 271 277 275 277 278 274 266 251 261 282 290 292 304 313 308 308 315 318 319 307 300 295 289 281 277 272 267 267 266 264 261 256 251 250 250 251
202 204 210 214 217 222 224 224 239 253 259 274 284 282 284 284 280 282 289 295 298 307 307 300 304 310 308 301 296 293 292 294 291 282 273 269 267 265 266 262 257 255 255 256
214 215 218 243 245 222 217 220 233 246 247 250 269 276 278 283 285 288 292 297 298 299 298 297 298 298 299 298 295 293 292 290 285 277 271 268 267 267 268 266 266 263 260 257
Height
1498 1496 1497 1497 1497 1498 1501 1504 1509 1506 1504 1498 1494 1493 1491 1490 1490 1490 1490 1490 1491 1491 1492 1493 1494 1495 1496 1498 1500 1501 1503 1504 1505 1507 1508 1509 1511 1512 1512 1513 1514 1515 1516 1516
1498 1495 1495 1497 1495 1496 1498 1499 1500 1500 1500 1493 1491 1491 1490 1489 1488 1488 1488 1488 1489 1489 1490 1491 1491 1492 1493 1494 1496 1498 1499 1500 1502 1503 1505 1506 1507 1508 1509 1510 1511 1512 1512 1513
1504 1499 1495 1500 1495 1495 1496 1495 1496 1498 1495 1491 1490 1489 1488 1487 1487 1487 1487 1487 1487 1487 1488 1488 1489 1489 1490 1491 1493 1494 1495 1497 1498 1500 1501 1502 1503 1504 1505 1506 1507 1508 1509 1509
1507 1502 1506 1498 1490 1490 1492 1492 1492 1491 1490 1488 1487 1486 1486 1486 1485 1485 1485 1485 1485 1485 1485 1486 1486 1487 1488 1489 1490 1491 1492 1493 1495 1496 1497 1498 1499 1500 1502 1502 1503 1504 1505 1505
1509 1508 1503 1495 1490 1490 1492 1492 1490 1490 1488 1487 1486 1485 1484 1484 1484 1483 1483 1483 1483 1483 1483 1483 1484 1484 1485 1486 1487 1488 1489 1490 1491 1492 1493 1495 1496 1497 1498 1499 1499 1500 1501 1502
1508 1506 1505 1495 1489 1487 1490 1492 1488 1487 1487 1486 1486 1489 1486 1483 1483 1482 1482 1481 1481 1481 1481 1482 1482 1482 1483 1483 1484 1485 1486 1487 1488 1489 1490 1491 1492 1493 1494 1495 1496 1496 1497 1498
1507 1506 1500 1492 1487 1487 1497 1495 1488 1486 1485 1485 1485 1486 1485 1483 1482 1481 1481 1480 1479 1479 1479 1479 1480 1480 1481 1481 1482 1483 1484 1485 1486 1487 1487 1488 1489 1490 1491 1491 1492 1493 1493 1494
1506 1506 1501 1489 1488 1492 1492 1488 1486 1484 1483 1483 1483 1483 1482 1481 1481 1480 1479 1479 1478 1477 1477 1478 1478 1478 1479 1479 1480 1481 1482 1483 1484 1484 1485 1485 1486 1487 1487 1488 1488 1489 1489 1490
1497 1496 1490 1488 1488 1488 1487 1486 1485 1484 1483 1483 1482 1482 1481 1481 1480 1480 1479 1478 1477 1476 1476 1476 1476 1477 1477 1478 1478 1479 1480 1480 1481 1481 1482 1482 1483 1483 1484 1484 1485 1485 1485 1485
1493 1490 1487 1486 1486 1486 1486 1485 1484 1483 1482 1482 1481 1481 1480 1480 1479 1479 1478 1477 1477 1476 1475 1475 1475 1475 1475 1476 1476 1476 1477 1477 1478 1478 1478 1479 1479 1480 1480 1480 1481 1481 1481 1481
1490 1487 1485 1484 1484 1484 1484 1484 1483 1482 1482 1481 1481 1480 1480 1479 1479 1478 1478 1477 1476 1475 1474 1473 1473 1473 1473 1473 1473 1473 1473 1474 1474 1475 1475 1475 1476 1476 1476 1476 1477 1477 1477 1478
1486 1483 1484 1483 1483 1483 1483 1482 1482 1481 1480 1481 1480 1480 1479 1478 1478 1477 1477 1476 1475 1474 1473 1472 1471 1471 1471 1471 1471 1470 1470 1471 1471 1471 1472 1472 1472 1472 1472 1473 1473 1473 1473 1473
1480 1480 1481 1481 1481 1481 1481 1481 1481 1481 1480 1479 1479 1479 1478 1477 1477 1476 1475 1475 1474 1472 1471 1470 1470 1469 1469 1468 1468 1467 1467 1467 1468 1468 1468 1468 1468 1468 1468 1468 1468 1469 1469 1469
1478 1479 1479 1479 1479 1480 1480 1480 1480 1480 1479 1479 1478 1478 1477 1476 1475 1475 1474 1473 1472 1471 1470 1469 1468 1467 1466 1465 1465 1464 1464 1464 1464 1465 1465 1465 1464 1464 1464 1463 1463 1463 1464 1464
1476 1477 1477 1478 1478 1478 1478 1478 1478 1478 1478 1477 1477 1476 1476 1475 1474 1473 1472 1471 1470 1468 1467 1466 1465 1464 1463 1462 1461 1461 1461 1461 1461 1461 1461 1461 1461 1460 1460 1460 1459 1459 1459 1459
1474 1475 1475 1476 1476 1476 1476 1476 1476 1476 1476 1476 1475 1475 1474 1474 1473 1472 1470 1469 1467 1466 1465 1463 1462 1461 1460 1459 1458 1457 1457 1457 1457 1457 1456 1456 1456 1456 1455 1455 1455 1455 1454 1454
1473 1473 1474 1474 1474 1474 1475 1475 1475 1475 1475 1475 1474 1474 1473 1472 1471 1469 1468 1467 1466 1464 1462 1461 1460 1458 1456 1455 1454 1453 1453 1453 1453 1452 1452 1452 1451 1451 1451 1451 1451 1450 1450 1450
1471 1472 1472 1472 1473 1473 1473 1474 1474 1474 1474 1473 1473 1472 1471 1470 1469 1467 1466 1464 1463 1461 1460 1458 1457 1455 1453 1452 1451 1449 1449 1448 1448 1448 1447 1447 1447 1447 1447 1446 1446 1445 1445 1445
1469 1470 1471 1471 1471 1472 1472 1472 1473 1473 1473 1472 1471 1471 1470 1469 1467 1466 1464 1462 1460 1458 1456 1455 1454 1452 1450 1448 1447 1446 1445 1444 1443 1443 1443 1443 1443 1442 1442 1441 1441 1441 1440 1440
1468 1468 1469 1469 1470 1470 1470 1471 1471 1471 1471 1471 1470 1469 1468 1467 1465 1464 1462 1460 1458 1456 1454 1452 1450 1448 1447 1445 1444 1442 1441 1440 1439 1439 1439 1438 1438 1437 1437 1437 1436 1436 1435 1435
1466 1467 1467 1468 1468 1469 1469 1469 1469 1469 1469 1469 1468 1467 1466 1464 1463 1461 1459 1456 1455 1454 1451 1449 1447 1445 1443 1441 1440 1438 1437 1436 1435 1435 1434 1434 1433 1433 1432 1432 1431 1431 1430 1430
1465 1465 1466 1466 1466 1467 1467 1467 1467 1467 1467 1466 1465 1464 1463 1461 1460 1458 1456 1454 1452 1450 1448 1446 1444 1442 1440 1438 1436 1434 1433 1432 1431 1430 1430 1429 1428 1428 1428 1427 1427 1426 1426 1425
1464 1464 1464 1464 1464 1465 1465 1465 1465 1465 1464 1463 1462 1461 1460 1458 1456 1454 1452 1451 1449 1447 1445 1443 1441 1439 1437 1434 1432 1430 1429 1428 1427 1426 1425 1424 1424 1423 1423 1422 1422 1422 1421 1421
1462 1462 1462 1463 1463 1462 1462 1462 1462 1462 1461 1460 1459 1458 1457 1455 1453 1451 1449 1447 1445 1443 1441 1439 1437 1435 1433 1430 1428 1427 1425 1424 1423 1422 1421 1420 1420 1419 1418 1418 1417 1417 1416 1416
1459 1460 1460 1460 1460 1459 1459 1459 1458 1458 1457 1456 1455 1454 1453 1451 1450 1447 1446 1443 1441 1439 1437 1435 1433 1431 1429 1427 1425 1423 1421 1420 1419 1418 1417 1416 1415 1415 1414 1413 1413 1412 1412 1411
1456 1456 1457 1457 1457 1456 1456 1456 1455 1454 1453 1452 1451 1450 1449 1448 1446 1444 1442 1439 1437 1435 1433 1431 1429 1427 1425 1423 1421 1419 1418 1416 1415 1414 1413 1412 1411 1410 1409 1409 1408 1408 1407 1407
1453 1453 1453 1453 1453 1453 1453 1452 1451 1450 1449 1448 1447 1446 1445 1443 1442 1440 1438 1435 1433 1431 1429 1427 1425 1423 1422 1420 1418 1416 1414 1412 1411 1410 1409 1408 1407 1406 1405 1405 1404 1404 1403 1403